Weather History for KTKC - November, 2012

Change the Weather History Date:

Wednesday, November 14, 2012

  Actual Average (KMML) Record (KMML)
Temperature  
Mean Temperature 42 °F -  
Max Temperature 52 °F 40 °F 70 °F (1953)
Min Temperature 31 °F 23 °F -6 °F (1959)
Degree Days  
Heating Degree Days 24    
Moisture  
Dew Point 28 °F    
Average Humidity 59    
Maximum Humidity 74    
Minimum Humidity 40    
Precipitation  
Precipitation 0.00 in - - ()
Sea Level Pressure  
Sea Level Pressure 30.18 in    
Wind  
Wind Speed 4 mph (SSW)    
Max Wind Speed 15 mph    
Max Gust Speed 20 mph    
Visibility 10 miles    
Events      
Averages and records for this station are not official NWS values.
T = Trace of Precipitation, MM = Missing Value Source: NWS Daily Summary

Daily Weather History Graph

Daily Weather History Graph

Search for Another Location

Airport or City:

Trip Planner

Search our weather history database for the weather conditions in past years. The results will help you decide how hot, cold, wet, or windy it might be!

Date:

Astronomy

Nov. 14, 2012 Rise Set
Actual Time 7:17 AM CST 4:56 PM CST
Civil Twilight 6:46 AM CST 5:27 PM CST
Nautical Twilight 6:11 AM CST 6:02 PM CST
Astronomical Twilight 5:36 AM CST 6:36 PM CST
Moon 8:10 AM CST (11/14) 5:43 PM CST (11/14)
Length of Visible Light 10h 41m
Length of Day
9h 38m
New Moon, 1% of the Moon is Illuminated
Nov 14
New Moon
Nov 20
First Quarter
Nov 28
Full
Dec 6
Last Quarter
Dec 13
New

Hourly Weather History & Observations

Time (CST) Temp. Windchill Dew Point Humidity Pressure Visibility Wind Dir Wind Speed Gust Speed Precip Events Conditions
12:14 AM 35.8 °F - 26.2 °F 68% 30.22 in 10.0 mi Calm Calm - N/A   Overcast
12:34 AM 35.8 °F - 25.7 °F 67% 30.22 in 10.0 mi Calm Calm - N/A   Scattered Clouds
12:53 AM 34.0 °F - 25.7 °F 72% 30.22 in 10.0 mi Calm Calm - N/A   Scattered Clouds
1:14 AM 32.9 °F - 25.5 °F 74% 30.22 in 10.0 mi Calm Calm - N/A   Scattered Clouds
1:34 AM 32.9 °F - 25.3 °F 74% 30.22 in 10.0 mi Calm Calm - N/A   Clear
1:54 AM 33.6 °F - 24.6 °F 70% 30.22 in 10.0 mi Calm Calm - N/A   Clear
2:14 AM 33.4 °F - 23.7 °F 68% 30.23 in 10.0 mi Calm Calm - N/A   Scattered Clouds
2:34 AM 33.3 °F - 25.2 °F 72% 30.23 in 10.0 mi Calm Calm - N/A   Mostly Cloudy
2:54 AM 36.0 °F - 24.3 °F 63% 30.23 in 10.0 mi Calm Calm - N/A   Overcast
3:14 AM 35.6 °F - 23.9 °F 62% 30.23 in 10.0 mi Calm Calm - N/A   Overcast
3:34 AM 33.3 °F - 23.5 °F 68% 30.23 in 10.0 mi Calm Calm - N/A   Scattered Clouds
3:54 AM 32.9 °F - 23.0 °F 67% 30.23 in 10.0 mi Calm Calm - N/A   Clear
4:14 AM 32.0 °F - 22.8 °F 69% 30.22 in 10.0 mi Calm Calm - N/A   Clear
4:34 AM 32.0 °F - 22.8 °F 69% 30.23 in 10.0 mi Calm Calm - N/A   Clear
4:54 AM 32.2 °F - 22.5 °F 67% 30.22 in 10.0 mi Calm Calm - N/A   Clear
5:14 AM 32.0 °F - 22.6 °F 68% 30.22 in 10.0 mi Calm Calm - N/A   Clear
5:34 AM 31.1 °F - 23.0 °F 72% 30.23 in 10.0 mi Calm Calm - N/A   Clear
6:14 AM 31.1 °F - 23.0 °F 72% 30.23 in 10.0 mi Calm Calm - N/A   Clear
6:34 AM 31.6 °F - 23.0 °F 70% 30.22 in 10.0 mi Calm Calm - N/A   Clear
6:54 AM 32.0 °F - 23.0 °F 69% 30.23 in 10.0 mi Calm Calm - N/A   Clear
7:14 AM 32.0 °F - 22.8 °F 69% 30.23 in 10.0 mi Calm Calm - N/A   Clear
7:34 AM 31.8 °F - 23.4 °F 71% 30.23 in 10.0 mi Calm Calm - N/A   Clear
7:54 AM 32.9 °F - 24.1 °F 70% 30.23 in 10.0 mi Calm Calm - N/A   Clear
8:14 AM 35.2 °F - 24.8 °F 66% 30.23 in 10.0 mi Calm Calm - N/A   Clear
8:34 AM 36.0 °F - 25.0 °F 64% 30.23 in 10.0 mi Calm Calm - N/A   Clear
8:54 AM 37.6 °F 30.5 °F 25.0 °F 60% 30.23 in 10.0 mi SW 10.4 mph - N/A   Clear
9:14 AM 39.7 °F 33.2 °F 25.2 °F 56% 30.23 in 10.0 mi SSW 10.4 mph - N/A   Clear
9:34 AM 41.0 °F 35.8 °F 25.9 °F 55% 30.23 in 10.0 mi SSW 8.1 mph - N/A   Clear
9:53 AM 42.6 °F 36.8 °F 26.8 °F 54% 30.23 in 10.0 mi SSW 10.4 mph - N/A   Clear
10:14 AM 41.2 °F 35.5 °F 27.5 °F 58% 30.23 in 10.0 mi SW 9.2 mph - N/A   Clear
10:34 AM 43.7 °F 38.6 °F 28.8 °F 56% 30.23 in 10.0 mi SW 9.2 mph - N/A   Clear
10:54 AM 47.5 °F - 30.0 °F 51% 30.23 in 10.0 mi SSW 10.4 mph - N/A   Clear
11:14 AM 49.1 °F - 29.8 °F 47% 30.22 in 10.0 mi SW 10.4 mph - N/A   Clear
11:34 AM 50.0 °F - 28.9 °F 44% 30.21 in 10.0 mi SSW 10.4 mph - N/A   Clear
11:54 AM 50.2 °F - 29.3 °F 45% 30.20 in 10.0 mi SSW 9.2 mph - N/A   Clear
12:14 PM 51.6 °F - 29.5 °F 43% 30.20 in 10.0 mi SW 15.0 mph 18.4 mph N/A   Clear
12:34 PM 51.3 °F - 29.7 °F 44% 30.19 in 10.0 mi SSW 12.7 mph - N/A   Clear
12:54 PM 52.3 °F - 30.0 °F 42% 30.18 in 10.0 mi SW 15.0 mph - N/A   Clear
1:14 PM 51.3 °F - 29.5 °F 43% 30.18 in 10.0 mi WSW 13.8 mph - N/A   Clear
1:34 PM 52.7 °F - 28.9 °F 40% 30.17 in 10.0 mi SW 10.4 mph - N/A   Clear
1:54 PM 52.2 °F - 29.5 °F 42% 30.17 in 10.0 mi SW 10.4 mph - N/A   Clear
2:14 PM 52.2 °F - 28.6 °F 40% 30.16 in 10.0 mi SW 10.4 mph 16.1 mph N/A   Clear
2:34 PM 51.8 °F - 28.8 °F 41% 30.15 in 10.0 mi SW 11.5 mph - N/A   Clear
2:54 PM 51.6 °F - 28.6 °F 41% 30.16 in 10.0 mi SSW 10.4 mph - N/A   Clear
3:14 PM 50.2 °F - 29.5 °F 45% 30.15 in 10.0 mi SSW 8.1 mph - N/A   Clear
3:34 PM 49.6 °F - 28.8 °F 45% 30.15 in 10.0 mi SSW 9.2 mph - N/A   Clear
3:54 PM 49.5 °F - 29.3 °F 46% 30.14 in 10.0 mi SSW 8.1 mph - N/A   Clear
4:14 PM 48.9 °F - 30.2 °F 48% 30.14 in 10.0 mi SSW 8.1 mph - N/A   Clear
4:34 PM 47.3 °F - 30.2 °F 52% 30.14 in 10.0 mi SSW 6.9 mph - N/A   Clear
4:54 PM 45.9 °F 42.3 °F 29.8 °F 54% 30.13 in 10.0 mi SSW 6.9 mph - N/A   Clear
5:14 PM 45.0 °F 42.6 °F 30.2 °F 56% 30.13 in 10.0 mi South 4.6 mph - N/A   Mostly Cloudy
5:34 PM 44.6 °F 41.4 °F 30.2 °F 57% 30.13 in 10.0 mi SSW 5.8 mph - N/A   Overcast
5:54 PM 44.6 °F 40.2 °F 30.6 °F 58% 30.13 in 10.0 mi South 8.1 mph - N/A   Overcast
6:14 PM 44.6 °F 39.7 °F 30.4 °F 57% 30.13 in 10.0 mi SSW 9.2 mph - N/A   Overcast
6:34 PM 44.4 °F 39.5 °F 30.2 °F 57% 30.13 in 10.0 mi South 9.2 mph - N/A   Overcast
6:53 PM 43.9 °F 39.3 °F 30.6 °F 59% 30.13 in 10.0 mi South 8.1 mph - N/A   Overcast
7:14 PM 43.5 °F 39.4 °F 31.1 °F 62% 30.13 in 10.0 mi South 6.9 mph - N/A   Overcast
7:34 PM 43.2 °F 39.0 °F 31.1 °F 62% 30.13 in 10.0 mi South 6.9 mph - N/A   Overcast
7:53 PM 43.2 °F 37.9 °F 30.9 °F 62% 30.13 in 10.0 mi SSW 9.2 mph - N/A   Overcast
8:34 PM 43.0 °F 38.2 °F 30.9 °F 62% 30.12 in 10.0 mi SSW 8.1 mph - N/A   Overcast
8:54 PM 43.0 °F 37.7 °F 31.1 °F 63% 30.12 in 10.0 mi South 9.2 mph - N/A   Overcast
9:14 PM 43.2 °F 37.4 °F 30.9 °F 62% 30.12 in 10.0 mi SSW 10.4 mph - N/A   Overcast
9:34 PM 42.4 °F 37.5 °F 30.7 °F 63% 30.12 in 10.0 mi South 8.1 mph - N/A   Overcast
9:54 PM 41.9 °F 37.5 °F 30.7 °F 65% 30.11 in 10.0 mi South 6.9 mph - N/A   Overcast
10:14 PM 41.7 °F 37.3 °F 30.7 °F 65% 30.11 in 10.0 mi South 6.9 mph - N/A   Overcast
10:34 PM 41.4 °F 35.7 °F 30.6 °F 65% 30.10 in 10.0 mi South 9.2 mph - N/A   Overcast
10:54 PM 41.9 °F 35.0 °F 30.0 °F 63% 30.10 in 10.0 mi SSW 12.7 mph - N/A   Overcast
11:03 PM 42.1 °F 35.7 °F 30.0 °F 62% 30.09 in 10.0 mi SSW 11.5 mph 16.1 mph N/A   Overcast
11:37 PM 41.7 °F 34.4 °F 30.0 °F 63% 30.09 in 10.0 mi SSW 13.8 mph 19.6 mph N/A   Overcast
11:54 PM 41.2 °F 33.7 °F 30.0 °F 65% 30.09 in 10.0 mi SSW 13.8 mph - N/A   Mostly Cloudy